Regional Weather Roundup
Issued by NWS Cleveland, OH

Home | Current Version | Previous Version | Graphics & Text | Print | Product List | Glossary On
Versions: 1 2 3 4 5 6 7 8 9 10 11 12 13 14 15 16 17 18 19 20 21 22 23 24 25 26 27 28 29 30 31 32 33 34 35 36 37 38 39 40 41 42 43 44 45 46 47 48 49 50
324
ASUS41 KCLE 010210
RWRCLE
OHIO REGIONAL WEATHER ROUNDUP
NATIONAL WEATHER SERVICE WILMINGTON, OH
1000 PM EDT SUN APR 30 2017

NOTE: "FAIR" INDICATES FEW OR NO CLOUDS BELOW 12,000 FEET WITH NO
SIGNIFICANT WEATHER AND/OR OBSTRUCTIONS TO VISIBILITY.

OHZ001>008-015>018-024>027-034-035-043-044-010300-
   NORTHWEST OHIO

CITY           SKY/WX    TMP DP  RH WIND       PRES   REMARKS
DEFIANCE       MOCLDY    62  61  96 E8        29.75S
FINDLAY        MOCLDY    65  61  87 E7        29.75F
TOLEDO EXPRESS LGT RAIN  54  54 100 E3        29.76F FOG
TOLEDO EXEC    CLOUDY    56  56 100 E6        29.78F FOG
LIMA           FAIR      64  63  96 E6        29.74F
$$

OHZ009>014-019>023-028>033-038-089-010300-
   NORTHEAST OHIO

CITY           SKY/WX    TMP DP  RH WIND       PRES   REMARKS
CLE-HOPKINS    CLOUDY    64  57  78 E7        29.87F
CLE-LAKEFRONT  FAIR      58  55  90 NE3       29.86S
CUY CO. ARPT   CLOUDY    61  59  94 NE5       29.89R
LORAIN-ELYRIA  MOCLDY    60  57  89 E8        29.84F
ASHTABULA      CLOUDY    66  60  81 NW12G21   29.90R
AKRON-CANTON   CLOUDY    72  64  76 SE6       29.86S
WOOSTER        MOCLDY    69  65  86 S3        29.86R
MANSFIELD      MOCLDY    74  63  68 SE8       29.83F
YOUNGSTOWN     CLOUDY    71  62  73 SE7       29.87S
$$

OHZ042-051>053-060>062-070>072-077>081-010300-
  SOUTHWEST OHIO

CITY           SKY/WX    TMP DP  RH WIND       PRES   REMARKS
CINC-COVINGTON MOCLDY    69  63  81 S23       29.77F
CINC-LUNKEN    LGT RAIN  69  65  86 S21G31    29.78F
HAMILTON       LGT RAIN  73  63  70 S9G18     29.77S
DAYTON         CLOUDY    76  60  57 S23G35    29.77R
WRIGHT-PAT AFB LGT RAIN  77  62  59 S16G31    29.78S
DAYTON GENERAL LGT RAIN  72  63  73 S16G29    29.78F
WILMINGTON     LGT RAIN  67  65  93 S14G26    29.85R
$$

OHZ036-037-039>041-045>050-054>059-063>069-073>076-082>088-010300-
  CENTRAL AND SOUTHEAST OHIO

CITY           SKY/WX    TMP DP  RH WIND       PRES   REMARKS
COLUMBUS       CLOUDY    77  63  61 S8        29.82S
OSU AIRPORT    FAIR      78  63  59 S13       29.81S
BOLTON FIELD   FAIR      74  65  72 S9G17     29.83S
RICKENBACK AFB FAIR      74  63  68 S6        29.82S
NEWARK         FAIR      74  64  71 CALM      29.83F
MARION         FAIR      69  63  81 SE7       29.80F
LANCASTER      FAIR      77  61  57 S5        29.84F
ZANESVILLE     FAIR      77  60  55 S8        29.86R
NEW PHILLY     FAIR      67  66  97 E5        29.86S
$$




USA.gov is the U.S. government's official web portal to all federal, state and local government web resources and services.